COSMOS 1344

Satellite information

Favourite Embed

Satellite Type and Status

PAYLOADIN ORBIT

Key statistics

Satellite COSMOS 1344 at a glance.

Uptime

15971

Days in orbit

Revolutions

≈ 13.7

Per day

Orbit

LEO

Low Earth Orbit

Inclination

82.9

Latest

Satellite identification and parameters

Extended collection of information and parameters for COSMOS 1344.

Object identification

Identified? True

Debris? False

Object name: COSMOS 1344

International designator: 1982-024A

Object number (NORAD): 13110

Object ID (CCSDS): 13110

Country: COMMONWEALTH OF INDEPENDENT STATES (CIS)

Current information (Y/N): Y

RCS size: LARGE

Orbital parameters

Period: 104.787 minutes

Inclination: 82.9218 deg

SMA: 7362.605 km

Apoapsis: 1005.915 km

Periapsis: 963.025 km

RAAN: 197.0954 deg

Eccentricy: 0.00291267

Argument of periapsis: 143.9722 deg

Mean anomaly: 30.0103 deg

Mean motion: 13.74217631 rev/day

Mean motion (dot): 0.00000075 rev/day2

B* drag term: 0.000062812675 1/REarth

Two-line elements (TLE)

Creation date: Dec. 12, 2025, 10:14 a.m.

Reference frame: TEME

Reference center: EARTH

Epoch: Dec. 12, 2025, 7:34 a.m. UTC

TLE line 0: 0 COSMOS 1344

TLE line 1: 1 13110U 82024A 25346.31588941 .00000075 00000-0 62813-4 0 9997

TLE line 2: 2 13110 82.9218 197.0954 0029127 143.9722 30.0103 13.74217631191870

Live tracking on map

Real-time ground track for satellite COSMOS 1344.

In-orbit conjunctions

A list of the most updated potential collisions computed for object COSMOS 1344.

Target Orbit TCA Probability of collision Miss distance Type
SCOUT B-1 DEB SSO 2025-11-17 21:51:27 0.001557574 114.0 (m) DEBRIS
SL-8 R/B LEO 2025-08-30 10:26:38 0.0002478487 116.0 (m) ROCKET BODY
SL-8 R/B LEO 2025-01-18 14:57:45 0.0001614604 48.0 (m) ROCKET BODY
FENGYUN 1C DEB SSO 2024-12-31 04:39:28 0.0001143766 686.0 (m) DEBRIS
CZ-6A DEB SSO 2024-11-19 21:43:34 0.0003253804 171.0 (m) DEBRIS

Associated space launch

Molniya communication satellites operating from a highly elliptical orbit

COSMOS 1344 was lifted into orbit during the mission ‘Molniya-M | Molniya-3 29L’, on board a Molniya-M space rocket.

The launch took place on March 24, 1982, 12:12 a.m. from 41/1.

For more information about the launch, click the button.

Launch to space Molniya-M | Molniya-3 29L
Molniya-M | Molniya-3 29L

Agency: N/A

Status: Launch Successful

Launch date: March 24, 1982, 12:12 a.m. UTC

Rocket: Molniya-M

Launch pad: 41/1

Location: Plesetsk Cosmodrome, Russian Federation

...

Latest news about this satellite

There are no fresh news available about this satellite. Check back as we update our databases every day.


Newsletter sign-up

Weekly statistics, charts and insights to help you stay on top of the space industry.